Location: Capvern
(43.1036°N, 0.3160°E)
Time: 03:38:52
(UTC+00:00)

Okean O Rocket - Pass Details

Date: 16 October 2021
Orbit: 623 x 643 km, 98.2° (Epoch: 02 December)

Event Time Altitude Azimuth Distance (km) Brightness Sun altitude
Rises 17:54:57 0° 157° (SSE) 2,891 4.8 -8.2°
Reaches altitude 10° 17:57:08 10° 154° (SSE) 1,989 4.0 -8.6°
Maximum altitude 18:01:25 63° 73° (ENE) 699 1.6 -9.4°
Drops below altitude 10° 18:05:43 10° 353° (N) 2,006 4.2 -10.2°
Sets 18:07:56 0° 351° (N) 2,920 5.1 -10.6°
